| time (UTC) | temp F | wind direction | speed MPH | gust MPH | rain 1hr in | rain 24hr in | rain mn in | humidity % | barometer mb |
| 20260904225018 | 72 | 59 | 4.0 | 7.0 | 0.00 | 0.00 | 0.00 | 42 | 1012.7 |
| 20260904224020 | 73 | 78 | 4.0 | 8.0 | 0.00 | 0.00 | 0.00 | 42 | 1012.7 |
| 20260904223018 | 74 | 41 | 5.0 | 7.0 | 0.00 | 0.00 | 0.00 | 41 | 1012.7 |
| 20260904222018 | 74 | 68 | 3.0 | 7.0 | 0.00 | 0.00 | 0.00 | 41 | 1012.8 |
| 20260904221019 | 73 | 47 | 6.0 | 10.0 | 0.00 | 0.00 | 0.00 | 42 | 1012.8 |
| 20260904220020 | 73 | 80 | 3.0 | 5.0 | 0.00 | 0.00 | 0.00 | 42 | 1012.8 |
| 20260904215019 | 73 | 10 | 7.0 | 12.0 | 0.00 | 0.00 | 0.00 | 42 | 1012.8 |
| 20260904214019 | 73 | 356 | 4.0 | 6.0 | 0.00 | 0.00 | 0.00 | 42 | 1012.8 |
| 20260904213020 | 73 | 41 | 5.0 | 8.0 | 0.00 | 0.00 | 0.00 | 43 | 1012.7 |
| 20260904212019 | 73 | 61 | 4.0 | 7.0 | 0.00 | 0.00 | 0.00 | 43 | 1012.7 |
| 20260904211019 | 73 | 40 | 5.0 | 8.0 | 0.00 | 0.00 | 0.00 | 42 | 1012.7 |
| 20260904210019 | 73 | 36 | 4.0 | 7.0 | 0.00 | 0.00 | 0.00 | 43 | 1012.7 |
| 20260904205101 | 72 | 28 | 6.0 | 11.0 | 0.00 | 0.00 | 0.00 | 44 | 1012.7 |
| 20260904204019 | 73 | 39 | 5.0 | 8.0 | 0.00 | 0.00 | 0.00 | 42 | 1012.8 |
| 20260904203020 | 71 | 37 | 5.0 | 8.0 | 0.00 | 0.00 | 0.00 | 45 | 1012.9 |
| 20260904202020 | 70 | 41 | 5.0 | 7.0 | 0.00 | 0.00 | 0.00 | 46 | 1013.0 |
| 20260904201020 | 69 | 50 | 4.0 | 6.0 | 0.00 | 0.00 | 0.00 | 48 | 1013.0 |
| 20260904200020 | 69 | 5 | 3.0 | 4.0 | 0.00 | 0.00 | 0.00 | 48 | 1013.0 |
| 20260904195020 | 70 | 43 | 4.0 | 8.0 | 0.00 | 0.00 | 0.00 | 47 | 1013.1 |
| 20260904194022 | 69 | 43 | 5.0 | 7.0 | 0.00 | 0.00 | 0.00 | 48 | 1013.1 |
| 20260904193020 | 70 | 56 | 3.0 | 8.0 | 0.00 | 0.00 | 0.00 | 48 | 1013.2 |
| 20260904192022 | 69 | 351 | 3.0 | 5.0 | 0.00 | 0.00 | 0.00 | 48 | 1013.3 |
| 20260904191020 | 69 | 59 | 2.0 | 3.0 | 0.00 | 0.00 | 0.00 | 48 | 1013.4 |
| 20260904190022 | 69 | 19 | 5.0 | 7.0 | 0.00 | 0.00 | 0.00 | 49 | 1013.5 |
| 20260904185021 | 69 | 11 | 2.0 | 3.0 | 0.00 | 0.00 | 0.00 | 47 | 1013.7 |
| 20260904184021 | 70 | 46 | 2.0 | 4.0 | 0.00 | 0.00 | 0.00 | 45 | 1013.6 |
| 20260904183021 | 71 | 41 | 3.0 | 6.0 | 0.00 | 0.00 | 0.00 | 44 | 1013.6 |
| 20260904182021 | 71 | 270 | 3.0 | 4.0 | 0.00 | 0.00 | 0.00 | 43 | 1013.5 |
| 20260904181023 | 70 | 274 | 2.0 | 3.0 | 0.00 | 0.00 | 0.00 | 43 | 1013.4 |
| 20260904180043 | 70 | 66 | 2.0 | 5.0 | 0.00 | 0.00 | 0.00 | 45 | 1013.4 |
| 20260904175022 | 69 | 300 | 4.0 | 6.0 | 0.00 | 0.00 | 0.00 | 47 | 1013.2 |
| 20260904174021 | 69 | 336 | 4.0 | 5.0 | 0.00 | 0.00 | 0.00 | 46 | 1013.2 |
| 20260904173022 | 69 | 284 | 3.0 | 5.0 | 0.00 | 0.00 | 0.00 | 47 | 1013.2 |
| 20260904172044 | 68 | 291 | 1.0 | 3.0 | 0.00 | 0.00 | 0.00 | 50 | 1013.2 |
| 20260904171023 | 66 | 307 | 3.0 | 4.0 | 0.00 | 0.00 | 0.00 | 54 | 1013.4 |
| 20260904170022 | 64 | 280 | 2.0 | 4.0 | 0.00 | 0.00 | 0.00 | 56 | 1013.3 |
| 20260904165024 | 63 | 270 | 3.0 | 4.0 | 0.00 | 0.00 | 0.00 | 58 | 1013.3 |
| 20260904164022 | 63 | 300 | 4.0 | 6.0 | 0.00 | 0.00 | 0.00 | 60 | 1013.4 |
| 20260904163023 | 62 | 279 | 3.0 | 5.0 | 0.00 | 0.00 | 0.00 | 62 | 1013.4 |
| 20260904162023 | 61 | 261 | 4.0 | 6.0 | 0.00 | 0.00 | 0.00 | 63 | 1013.4 |
| 20260904161022 | 60 | 257 | 3.0 | 5.0 | 0.00 | 0.00 | 0.00 | 66 | 1013.4 |
| 20260904160023 | 58 | 262 | 3.0 | 5.0 | 0.00 | 0.00 | 0.00 | 72 | 1013.4 |
| 20260904155024 | 55 | 296 | 2.0 | 3.0 | 0.00 | 0.00 | 0.00 | 78 | 1013.3 |
| 20260904154025 | 54 | 272 | 3.0 | 4.0 | 0.00 | 0.00 | 0.00 | 81 | 1013.4 |
| 20260904153023 | 53 | 296 | 2.0 | 3.0 | 0.00 | 0.00 | 0.00 | 84 | 1013.3 |
| 20260904152025 | 53 | 0.0 | 0.0 | 0.00 | 0.00 | 0.00 | 86 | 1013.2 | |
| 20260904151025 | 53 | 319 | 1.0 | 2.0 | 0.00 | 0.00 | 0.00 | 88 | 1013.2 |
| 20260904150023 | 53 | 257 | 2.0 | 2.0 | 0.00 | 0.00 | 0.00 | 89 | 1013.1 |
| 20260904145023 | 52 | 276 | 1.0 | 2.0 | 0.00 | 0.00 | 0.00 | 90 | 1013.2 |
| 20260904144045 | 52 | 270 | 2.0 | 4.0 | 0.00 | 0.00 | 0.00 | 91 | 1013.1 |
| 20260904143024 | 51 | 263 | 2.0 | 5.0 | 0.00 | 0.00 | 0.00 | 92 | 1013.0 |
| 20260904142025 | 51 | 270 | 0.0 | 2.0 | 0.00 | 0.00 | 0.00 | 92 | 1012.8 |
| 20260904141024 | 50 | 266 | 2.0 | 3.0 | 0.00 | 0.00 | 0.00 | 92 | 1012.7 |
| 20260904140026 | 49 | 235 | 2.0 | 3.0 | 0.00 | 0.00 | 0.00 | 92 | 1012.4 |
| 20260904135024 | 48 | 0.0 | 0.0 | 0.00 | 0.00 | 0.00 | 91 | 1012.3 | |
| 20260904134026 | 48 | 0.0 | 0.0 | 0.00 | 0.00 | 0.00 | 91 | 1012.1 | |
| 20260904133024 | 48 | 0.0 | 0.0 | 0.00 | 0.00 | 0.00 | 91 | 1011.9 | |
| 20260904132045 | 48 | 0.0 | 0.0 | 0.00 | 0.00 | 0.00 | 91 | 1011.9 | |
| 20260904131026 | 48 | 0.0 | 0.0 | 0.00 | 0.00 | 0.00 | 91 | 1011.8 | |
| 20260904130026 | 48 | 0.0 | 0.0 | 0.00 | 0.00 | 0.00 | 91 | 1011.7 | |
| 20260904125026 | 48 | 0.0 | 0.0 | 0.00 | 0.00 | 0.00 | 90 | 1011.6 | |
| 20260904124025 | 48 | 0.0 | 0.0 | 0.00 | 0.00 | 0.00 | 90 | 1011.5 | |
| 20260904123027 | 48 | 0.0 | 0.0 | 0.00 | 0.00 | 0.00 | 90 | 1011.5 | |
| 20260904122025 | 48 | 0.0 | 0.0 | 0.00 | 0.00 | 0.00 | 90 | 1011.3 | |
| 20260904121026 | 48 | 0.0 | 0.0 | 0.00 | 0.00 | 0.00 | 90 | 1011.3 | |
| 20260904120027 | 48 | 0.0 | 0.0 | 0.00 | 0.00 | 0.00 | 90 | 1011.2 | |
| 20260904115026 | 48 | 0.0 | 0.0 | 0.00 | 0.00 | 0.00 | 90 | 1011.1 | |
| 20260904114026 | 47 | 0.0 | 0.0 | 0.00 | 0.00 | 0.00 | 89 | 1011.1 | |
| 20260904113026 | 47 | 0.0 | 0.0 | 0.00 | 0.00 | 0.00 | 89 | 1011.0 | |
| 20260904112028 | 47 | 0.0 | 0.0 | 0.00 | 0.00 | 0.00 | 89 | 1011.0 | |
| 20260904111026 | 47 | 0.0 | 0.0 | 0.00 | 0.00 | 0.00 | 89 | 1010.9 | |
| 20260904110026 | 46 | 0.0 | 0.0 | 0.00 | 0.00 | 0.00 | 88 | 1010.8 | |
| 20260904105028 | 45 | 0.0 | 0.0 | 0.00 | 0.00 | 0.00 | 88 | 1010.7 | |
| 20260904104028 | 45 | 0.0 | 0.0 | 0.00 | 0.00 | 0.00 | 88 | 1010.6 | |
| 20260904103028 | 45 | 0.0 | 0.0 | 0.00 | 0.00 | 0.00 | 87 | 1010.6 | |
| 20260904102026 | 45 | 0.0 | 0.0 | 0.00 | 0.00 | 0.00 | 87 | 1010.4 | |
| 20260904101048 | 45 | 0.0 | 0.0 | 0.00 | 0.00 | 0.00 | 86 | 1010.3 | |
| 20260904100027 | 45 | 0.0 | 0.0 | 0.00 | 0.00 | 0.00 | 86 | 1010.2 | |
| 20260904095049 | 45 | 0.0 | 0.0 | 0.00 | 0.00 | 0.00 | 85 | 1010.1 | |
| 20260904094029 | 45 | 0.0 | 0.0 | 0.00 | 0.00 | 0.00 | 85 | 1010.1 | |
| 20260904093029 | 46 | 0.0 | 0.0 | 0.00 | 0.00 | 0.00 | 84 | 1010.1 | |
| 20260904092047 | 46 | 0.0 | 0.0 | 0.00 | 0.00 | 0.00 | 84 | 1010.1 | |
| 20260904091028 | 47 | 0.0 | 0.0 | 0.00 | 0.00 | 0.00 | 84 | 1010.0 | |
| 20260904090028 | 48 | 0.0 | 0.0 | 0.00 | 0.00 | 0.00 | 83 | 1010.0 | |
| 20260904085027 | 48 | 0.0 | 0.0 | 0.00 | 0.00 | 0.00 | 83 | 1010.1 | |
| 20260904084030 | 48 | 184 | 2.0 | 3.0 | 0.00 | 0.00 | 0.00 | 83 | 1010.1 |
| 20260904083032 | 48 | 173 | 2.0 | 3.0 | 0.00 | 0.00 | 0.00 | 83 | 1010.1 |
| 20260904082049 | 48 | 198 | 1.0 | 2.0 | 0.00 | 0.00 | 0.00 | 82 | 1010.1 |
| 20260904081028 | 48 | 180 | 0.0 | 2.0 | 0.00 | 0.00 | 0.00 | 81 | 1009.9 |
| 20260904080028 | 49 | 286 | 1.0 | 3.0 | 0.00 | 0.00 | 0.00 | 81 | 1009.9 |
| 20260904075029 | 49 | 261 | 1.0 | 3.0 | 0.00 | 0.00 | 0.00 | 80 | 1010.0 |
| 20260904074030 | 50 | 0.0 | 0.0 | 0.00 | 0.00 | 0.00 | 79 | 1009.9 | |
| 20260904073028 | 51 | 0.0 | 0.0 | 0.00 | 0.00 | 0.00 | 78 | 1009.9 | |
| 20260904072030 | 51 | 0.0 | 0.0 | 0.00 | 0.00 | 0.00 | 78 | 1009.9 | |
| 20260904071029 | 51 | 0.0 | 0.0 | 0.00 | 0.00 | 0.00 | 77 | 1009.9 | |
| 20260904070030 | 51 | 0.0 | 0.0 | 0.00 | 0.00 | 0.00 | 75 | 1009.8 | |
| 20260904065034 | 51 | 90 | 0.0 | 1.0 | 0.00 | 0.00 | 0.00 | 72 | 1009.8 |
| 20260904064031 | 52 | 113 | 0.0 | 1.0 | 0.00 | 0.00 | 0.00 | 70 | 1009.7 |
| 20260904063029 | 53 | 0.0 | 0.0 | 0.00 | 0.00 | 0.00 | 69 | 1009.8 | |
| 20260904062051 | 53 | 180 | 2.0 | 3.0 | 0.00 | 0.00 | 0.00 | 69 | 1009.7 |
| 20260904060029 | 54 | 178 | 2.0 | 3.0 | 0.00 | 0.01 | 0.00 | 67 | 1009.7 |
| 20260904055050 | 55 | 154 | 2.0 | 4.0 | 0.00 | 0.01 | 0.00 | 65 | 1009.6 |
| 20260904054030 | 56 | 0.0 | 0.0 | 0.00 | 0.02 | 0.00 | 62 | 1009.6 | |
| 20260904053030 | 57 | 188 | 3.0 | 4.0 | 0.00 | 0.02 | 0.00 | 60 | 1009.6 |
| 20260904052052 | 58 | 72 | 2.0 | 3.0 | 0.00 | 0.02 | 0.00 | 59 | 1009.7 |
| 20260904051030 | 59 | 167 | 1.0 | 2.0 | 0.00 | 0.02 | 0.00 | 55 | 1009.6 |
| 20260904050030 | 61 | 226 | 2.0 | 3.0 | 0.00 | 0.02 | 0.00 | 54 | 1009.7 |
| 20260904045032 | 61 | 241 | 3.0 | 5.0 | 0.00 | 0.03 | 0.00 | 53 | 1009.6 |
| 20260904044030 | 62 | 267 | 3.0 | 5.0 | 0.00 | 0.03 | 0.00 | 52 | 1009.6 |
| 20260904043031 | 62 | 194 | 3.0 | 6.0 | 0.00 | 0.04 | 0.00 | 52 | 1009.4 |
| 20260904042031 | 62 | 230 | 6.0 | 13.0 | 0.00 | 0.04 | 0.00 | 53 | 1009.3 |
| 20260904041031 | 63 | 295 | 5.0 | 8.0 | 0.00 | 0.05 | 0.00 | 52 | 1009.4 |
| 20260904040031 | 63 | 180 | 9.0 | 11.0 | 0.00 | 0.06 | 0.00 | 50 | 1008.8 |
| 20260904035031 | 64 | 162 | 8.0 | 11.0 | 0.00 | 0.06 | 0.00 | 49 | 1008.7 |
| 20260904034033 | 64 | 154 | 10.0 | 12.0 | 0.00 | 0.07 | 0.00 | 48 | 1008.6 |
| 20260904033031 | 64 | 160 | 10.0 | 15.0 | 0.00 | 0.07 | 0.00 | 47 | 1008.4 |
| 20260904032053 | 64 | 137 | 11.0 | 13.0 | 0.00 | 0.07 | 0.00 | 47 | 1008.4 |
| 20260904031033 | 64 | 166 | 11.0 | 15.0 | 0.00 | 0.07 | 0.00 | 46 | 1008.3 |
| 20260904030034 | 65 | 154 | 9.0 | 12.0 | 0.00 | 0.08 | 0.00 | 46 | 1008.2 |
| 20260904025052 | 65 | 162 | 8.0 | 11.0 | 0.00 | 0.08 | 0.00 | 45 | 1008.1 |
| 20260904024032 | 66 | 162 | 10.0 | 12.0 | 0.00 | 0.09 | 0.00 | 45 | 1008.0 |
| 20260904023032 | 67 | 155 | 9.0 | 10.0 | 0.00 | 0.10 | 0.00 | 44 | 1007.9 |
| 20260904022054 | 68 | 160 | 11.0 | 14.0 | 0.00 | 0.10 | 0.00 | 42 | 1007.9 |
| 20260904021032 | 70 | 139 | 10.0 | 12.0 | 0.00 | 0.11 | 0.00 | 40 | 1008.0 |
| 20260904020114 | 71 | 143 | 9.0 | 12.0 | 0.00 | 0.11 | 0.00 | 38 | 1008.0 |
| 20260904015053 | 70 | 138 | 6.0 | 9.0 | 0.00 | 0.11 | 0.00 | 36 | 1008.1 |
| 20260904014034 | 71 | 141 | 7.0 | 11.0 | 0.00 | 0.12 | 0.00 | 35 | 1008.1 |
| 20260904013034 | 71 | 150 | 8.0 | 10.0 | 0.00 | 0.12 | 0.00 | 36 | 1008.1 |
| 20260904012035 | 70 | 154 | 7.0 | 8.0 | 0.00 | 0.13 | 0.00 | 37 | 1008.1 |
| 20260904011033 | 70 | 167 | 8.0 | 11.0 | 0.00 | 0.14 | 0.00 | 37 | 1008.1 |
| 20260904010033 | 69 | 165 | 7.0 | 9.0 | 0.00 | 0.15 | 0.00 | 37 | 1008.1 |
| 20260904005035 | 69 | 149 | 8.0 | 11.0 | 0.00 | 0.16 | 0.00 | 37 | 1008.1 |
| 20260904004035 | 69 | 157 | 6.0 | 10.0 | 0.00 | 0.17 | 0.00 | 36 | 1008.2 |
| 20260904003033 | 69 | 164 | 6.0 | 8.0 | 0.00 | 0.19 | 0.00 | 36 | 1008.2 |
| 20260904002035 | 69 | 197 | 7.0 | 11.0 | 0.00 | 0.20 | 0.00 | 36 | 1008.2 |
| 20260904001034 | 70 | 176 | 8.0 | 11.0 | 0.00 | 0.22 | 0.00 | 35 | 1008.4 |
| 20260904000034 | 70 | 165 | 7.0 | 11.0 | 0.00 | 0.23 | 0.00 | 35 | 1008.4 |
| 20260903235036 | 71 | 174 | 7.0 | 8.0 | 0.00 | 0.24 | 0.00 | 36 | 1008.5 |
| 20260903234054 | 71 | 183 | 6.0 | 10.0 | 0.00 | 0.25 | 0.00 | 35 | 1008.5 |
| 20260903233034 | 72 | 176 | 8.0 | 14.0 | 0.00 | 0.25 | 0.00 | 34 | 1008.5 |
| 20260903232036 | 71 | 180 | 7.0 | 9.0 | 0.00 | 0.26 | 0.00 | 37 | 1008.5 |
| 20260903231034 | 71 | 184 | 7.0 | 10.0 | 0.00 | 0.27 | 0.00 | 36 | 1008.6 |
| 20260903230055 | 71 | 204 | 6.0 | 12.0 | 0.00 | 0.27 | 0.00 | 36 | 1008.6 |